Change the Weather History Date:

Friday, February 28, 2014

  Actual Average (KEGV) Record (KEGV)
Temperature  
Mean Temperature -12 °F -  
Max Temperature 8 °F 33 °F 48 °F (2004)
Min Temperature -32 °F 11 °F -27 °F (2014)
Degree Days  
Heating Degree Days 77    
Moisture  
Dew Point -14 °F    
Average Humidity 67    
Maximum Humidity 80    
Minimum Humidity 37    
Precipitation  
Precipitation 0.00 in - - ()
Sea Level Pressure  
Sea Level Pressure 29.92 in    
Wind  
Wind Speed 3 mph (SSW)    
Max Wind Speed 12 mph    
Max Gust Speed 20 mph    
Visibility 8 miles    
Events Snow    
Averages and records for this station are not official NWS values.
T = Trace of Precipitation, MM = Missing Value Source: NWS Daily Summary

Daily Weather History Graph

Daily Weather History Graph

Search for Another Location

Airport or City:

Trip Planner

Search our weather history database for the weather conditions in past years. The results will help you decide how hot, cold, wet, or windy it might be!

Date:

Astronomy

Feb. 28, 2014 Rise Set
Actual Time 6:37 AM CST 5:41 PM CST
Civil Twilight 6:07 AM CST 6:11 PM CST
Nautical Twilight 5:32 AM CST 6:46 PM CST
Astronomical Twilight 4:58 AM CST 7:21 PM CST
Moon 5:52 AM CST (2/28) 5:19 PM CST (2/28)
Length of Visible Light 12h 04m
Length of Day
11h 04m
Waning Crescent, 1% of the Moon is Illuminated
Feb 28
Waning Crescent
Mar 1
New
Mar 8
First Quarter
Mar 16
Full
Mar 23
Last Quarter

Hourly Weather History & Observations

Time (CST) Temp. Windchill Dew Point Humidity Pressure Visibility Wind Dir Wind Speed Gust Speed Precip Events Conditions
12:15 AM -30.3 °F - -37.7 °F 68% 30.01 in 10.0 mi Calm Calm - N/A   Clear
12:35 AM -31.0 °F - -38.6 °F 67% 30.02 in 10.0 mi Calm Calm - N/A   Clear
12:55 AM -31.4 °F - -39.3 °F 65% 30.01 in 10.0 mi Calm Calm - N/A   Clear
1:15 AM -31.7 °F - -38.9 °F 68% 30.01 in 10.0 mi Calm Calm - N/A   Clear
1:35 AM -29.4 °F - -36.8 °F 68% 30.01 in 10.0 mi Calm Calm - N/A   Scattered Clouds
1:55 AM -29.2 °F - -36.8 °F 67% 30.01 in 10.0 mi Calm Calm - N/A   Clear
2:15 AM -29.0 °F - -36.8 °F 66% 30.01 in 10.0 mi Calm Calm - N/A   Clear
2:35 AM -30.1 °F - -37.3 °F 68% 30.00 in 10.0 mi Calm Calm - N/A   Clear
2:55 AM -30.6 °F - -37.7 °F 69% 29.99 in 10.0 mi Calm Calm - N/A   Clear
3:15 AM -31.7 °F - -39.5 °F 66% 29.99 in 10.0 mi Calm Calm - N/A   Clear
3:35 AM -31.9 °F - -39.5 °F 67% 29.98 in 10.0 mi Calm Calm - N/A   Clear
3:55 AM -32.1 °F - -40.0 °F 65% 29.98 in 10.0 mi Calm Calm - N/A   Clear
4:15 AM -32.8 °F - -40.9 °F 65% 29.98 in 10.0 mi Calm Calm - N/A   Clear
4:35 AM -30.5 °F - -38.0 °F 67% 29.98 in 10.0 mi Calm Calm - N/A   Scattered Clouds
4:55 AM -30.3 °F - -38.0 °F 66% 29.98 in 10.0 mi Calm Calm - N/A   Scattered Clouds
5:15 AM -28.3 °F - -35.5 °F 68% 29.98 in 10.0 mi Calm Calm - N/A   Mostly Cloudy
5:35 AM -27.6 °F - -35.0 °F 68% 29.98 in 10.0 mi Calm Calm - N/A   Mostly Cloudy
5:55 AM -27.6 °F - -35.0 °F 68% 29.98 in 10.0 mi Calm Calm - N/A   Scattered Clouds
6:15 AM -25.6 °F - -32.1 °F 71% 29.97 in 10.0 mi Calm Calm - N/A   Overcast
6:35 AM -22.9 °F - -29.4 °F 72% 29.97 in 10.0 mi Calm Calm - N/A   Overcast
6:55 AM -17.5 °F - -24.2 °F 72% 29.97 in 10.0 mi Calm Calm - N/A   Overcast
7:15 AM -14.1 °F - -21.1 °F 71% 29.98 in 10.0 mi Calm Calm - N/A   Overcast
7:35 AM -10.8 °F - -18.8 °F 68% 29.98 in 10.0 mi Calm Calm - N/A   Overcast
7:55 AM -8.3 °F -21.4 °F -18.6 °F 61% 29.97 in 10.0 mi South 5.8 mph - N/A   Overcast
8:15 AM -6.0 °F -18.6 °F -18.6 °F 55% 29.97 in 10.0 mi South 5.8 mph - N/A   Overcast
8:35 AM -4.5 °F -22.8 °F -19.1 °F 50% 29.97 in 10.0 mi South 11.5 mph - N/A   Mostly Cloudy
8:55 AM -3.6 °F -17.3 °F -18.4 °F 49% 29.97 in 10.0 mi South 6.9 mph - N/A   Overcast
9:15 AM -2.6 °F -18.4 °F -17.3 °F 50% 29.96 in 10.0 mi SSE 9.2 mph - N/A   Mostly Cloudy
9:35 AM -1.1 °F -15.5 °F -16.6 °F 48% 29.96 in 10.0 mi South 8.1 mph - N/A   Mostly Cloudy
9:55 AM 0.1 °F -15.1 °F -15.3 °F 48% 29.95 in 10.0 mi South 9.2 mph - N/A   Overcast
10:15 AM 1.9 °F -12.9 °F -14.8 °F 46% 29.94 in 10.0 mi South 9.2 mph - N/A   Overcast
10:35 AM 3.2 °F -12.2 °F -14.3 °F 44% 29.93 in 10.0 mi South 10.4 mph - N/A   Overcast
10:55 AM 3.6 °F -10.9 °F -13.5 °F 45% 29.92 in 10.0 mi South 9.2 mph - N/A   Overcast
11:15 AM 3.9 °F -10.4 °F -14.1 °F 43% 29.93 in 10.0 mi South 9.2 mph - N/A   Overcast
11:35 AM 4.8 °F -8.3 °F -13.4 °F 43% 29.91 in 10.0 mi SSE 8.1 mph - N/A   Overcast
11:55 AM 6.3 °F -5.4 °F -14.4 °F 38% 29.90 in 10.0 mi South 6.9 mph - N/A   Overcast
12:15 PM 6.8 °F -7.8 °F -14.4 °F 37% 29.90 in 10.0 mi SSE 10.4 mph - N/A   Overcast
12:35 PM 7.9 °F -4.6 °F -10.3 °F 43% 29.89 in 5.0 mi South 8.1 mph 17.3 mph N/A   Haze
12:55 PM 8.1 °F -6.2 °F -4.7 °F 56% 29.88 in 2.0 mi South 10.4 mph 19.6 mph N/A Snow Light Snow
1:15 PM 7.3 °F -7.1 °F -2.7 °F 63% 29.87 in 2.0 mi South 10.4 mph 17.3 mph N/A Snow Light Snow
1:35 PM 7.2 °F -6.4 °F -1.8 °F 67% 29.85 in 2.5 mi SSE 9.2 mph - N/A Snow Light Snow
1:55 PM 6.8 °F -7.8 °F -1.7 °F 68% 29.85 in 3.0 mi SSE 10.4 mph 18.4 mph N/A Snow Light Snow
2:15 PM 7.2 °F -8.1 °F -0.9 °F 69% 29.84 in 2.0 mi South 11.5 mph 17.3 mph N/A Snow Light Snow
2:35 PM 6.8 °F -5.9 °F 0.1 °F 74% 29.83 in 1.8 mi South 8.1 mph - N/A Snow Light Snow
2:55 PM 7.2 °F -6.4 °F 0.9 °F 75% 29.84 in 1.5 mi South 9.2 mph - N/A Snow Light Snow
3:15 PM 7.3 °F -2.8 °F 1.2 °F 76% 29.83 in 1.8 mi South 5.8 mph - N/A Snow Light Snow
3:35 PM 6.8 °F -6.9 °F 0.5 °F 75% 29.82 in 3.0 mi South 9.2 mph - N/A Snow Light Snow
3:55 PM 7.2 °F -4.3 °F 0.3 °F 74% 29.82 in 7.0 mi South 6.9 mph - N/A Snow Light Snow
4:15 PM 7.3 °F -5.2 °F 0.1 °F 72% 29.82 in 10.0 mi South 8.1 mph - N/A Snow Light Snow
4:35 PM 7.2 °F -5.4 °F 0.3 °F 74% 29.83 in 10.0 mi South 8.1 mph - N/A Snow Light Snow
4:55 PM 6.8 °F -6.9 °F 0.5 °F 75% 29.83 in 5.0 mi SSW 9.2 mph - N/A   Haze
5:15 PM 7.0 °F -1.7 °F 0.9 °F 76% 29.83 in 4.0 mi South 4.6 mph - N/A Snow Light Snow
5:35 PM 6.8 °F -2.0 °F 1.4 °F 79% 29.84 in 2.0 mi SSW 4.6 mph - N/A Snow Light Snow
5:55 PM 6.6 °F -0.3 °F 1.4 °F 79% 29.84 in 3.0 mi SSW 3.5 mph - N/A Snow Light Snow
6:15 PM 6.8 °F -5.9 °F 1.4 °F 79% 29.85 in 5.0 mi SW 8.1 mph - N/A Snow Light Snow
6:35 PM 6.8 °F -3.5 °F 1.0 °F 77% 29.86 in 10.0 mi SW 5.8 mph - N/A   Overcast
6:55 PM 6.6 °F -0.3 °F 1.2 °F 79% 29.87 in 10.0 mi WSW 3.5 mph - N/A Snow Light Snow
7:15 PM 6.6 °F -0.3 °F 1.4 °F 79% 29.88 in 5.0 mi SW 3.5 mph - N/A Snow Light Snow
7:35 PM 6.6 °F -2.2 °F 1.4 °F 79% 29.87 in 7.0 mi SW 4.6 mph - N/A Snow Light Snow
7:55 PM 6.6 °F -0.3 °F 1.4 °F 79% 29.88 in 10.0 mi WSW 3.5 mph - N/A Snow Light Snow
8:15 PM 6.3 °F -2.6 °F 1.2 °F 80% 29.88 in 10.0 mi West 4.6 mph - N/A Snow Light Snow
8:35 PM 6.3 °F -0.7 °F 0.9 °F 78% 29.89 in 10.0 mi West 3.5 mph - N/A Snow Light Snow
8:55 PM 6.3 °F -2.6 °F 0.5 °F 77% 29.90 in 10.0 mi West 4.6 mph - N/A   Overcast
9:15 PM 5.7 °F -4.8 °F 0.1 °F 78% 29.90 in 10.0 mi West 5.8 mph - N/A   Mostly Cloudy
9:35 PM 5.4 °F -1.7 °F 0.1 °F 79% 29.91 in 10.0 mi WSW 3.5 mph - N/A   Clear
9:55 PM 5.0 °F -2.1 °F -0.0 °F 80% 29.91 in 10.0 mi West 3.5 mph - N/A   Scattered Clouds
10:15 PM 4.6 °F -6.0 °F -0.4 °F 80% 29.91 in 10.0 mi West 5.8 mph - N/A   Scattered Clouds
10:35 PM 4.8 °F -4.3 °F -0.2 °F 80% 29.91 in 10.0 mi West 4.6 mph - N/A Snow Light Snow
10:55 PM 4.6 °F -4.5 °F -0.4 °F 80% 29.91 in 7.0 mi West 4.6 mph - N/A Snow Light Snow
11:15 PM 4.5 °F -4.7 °F -0.4 °F 80% 29.93 in 10.0 mi WNW 4.6 mph - N/A Snow Light Snow
11:35 PM 4.5 °F -2.7 °F -0.4 °F 80% 29.94 in 10.0 mi West 3.5 mph - N/A Snow Light Snow
11:55 PM 4.1 °F -6.7 °F -0.8 °F 80% 29.94 in 10.0 mi WNW 5.8 mph - N/A Snow Light Snow